Tracking 19572 objects as of 24-Feb-2019
HD Live streaming from Space Station
objects crossing your sky now

NAVSTAR 56 (USA 180)

Track NAVSTAR 56 (USA 180) now!
NAVSTAR 56 (USA 180) is classified as:


NORAD ID: 28474
Int'l Code: 2004-045A
Perigee: 19,681.9 km
Apogee: 20,696.5 km
Inclination: 54.6 °
Period: 718.0 minutes
Semi major axis: 26560 km
RCS: 2.3866 m2 (large)
Launch date: November 6, 2004
Source: United States (US)
Launch site: AIR FORCE EASTERN TEST RANGE (AFETR)
PRN: 2

Navstar 56, also known as USA 180 and as GPS 2R-13, is an American navigational satellite that was launched by a Delta 2 rocket from Cape Canaveral at 05:39 UT on 6 November 2004. It is part of the 24-element GPS fleet and will replace the oldest member of the fleet, GPS 2A-11 launched in July 1991. It will be located in Plane D, Slot 1 position.
aabbcc
Your satellite tracking list
Your tracking list is empty




NASA's NSSDC Master Catalog

Two Line Element Set (TLE):
1 28474U 04045A   19054.82363681 -.00000045 +00000-0 +00000-0 0  9994
2 28474 054.6394 072.4023 0190993 258.6966 249.0611 02.00565451104870
Source of the keplerian elements: AFSPC